Regional Weather Roundup
Issued by NWS

Home | Current Version | Previous Version | Graphics & Text | Print | Product List | Glossary On
Versions: 1 2 3 4 5 6 7 8 9 10 11 12 13 14 15 16 17 18 19 20 21 22 23 24 25 26 27
000
ASUS45 KBOU 170807
RWRCO

WEATHER ROUNDUP FOR COLORADO
NATIONAL WEATHER SERVICE DENVER/BOULDER CO
100 AM MST TUE JAN 17 2017

NOTE: "FAIR" INDICATES FEW OR NO CLOUDS BELOW 12000 FEET WITH NO
SIGNIFICANT WEATHER AND/OR OBSTRUCTIONS TO VISIBILITY.

COZ001>005-013-030-031-170900-
...NORTHWEST COLORADO...

CITY           SKY/WX    TMP DP  RH WIND       PRES   REMARKS
CRAIG          CLOUDY    16  12  84 CALM      30.18F
HAYDEN         CLOUDY    16  10  79 SW3       30.15F
MEEKER         CLOUDY    18  11  74 NE3       30.16S
MOUNT WERNER   NOT AVBL
STEAMBOAT SPGS CLOUDY    17  15  91 E5        30.14F WCI  10
WALDEN           N/A    N/A N/A N/A SE5       30.11S VSB 1/4
$$

COZ006>008-011-170900-
...WEST CENTRAL VALLEYS...

CITY           SKY/WX    TMP DP  RH WIND       PRES   REMARKS
GRAND JUNCTION FAIR      26  22  84 CALM      30.14R
MONTROSE       CLOUDY    31  26  82 SE7       30.15S WCI  24
EAGLE          CLOUDY    24  21  88 SE5       30.14S WCI  18
RIFLE          FAIR      21  18  88 CALM      30.16R
DELTA          CLOUDY    36  30  80 E3        30.15S
NUCLA          CLOUDY    32  27  80 E5        30.15S WCI  27
$$

COZ017>023-064>068-170900-
...SOUTHWEST COLORADO...

CITY           SKY/WX    TMP DP  RH WIND       PRES   REMARKS
DURANGO        LGT SNOW  31  29  92 N3        30.09F FOG
CORTEZ         CLOUDY    34  33  96 CALM      30.09S
PAGOSA SPRINGS LGT SNOW  32  32 100 CALM      30.10S
TELLURIDE      CLOUDY    23  22  98 CALM      30.09S FOG
WOLF CREEK PAS CLOUDY    18  18 100 S7        30.14S WCI   8
$$

COZ009-010-012-014-032>034-037-058>063-170900-
...CENTRAL COLORADO...

CITY           SKY/WX    TMP DP  RH WIND       PRES   REMARKS
ASPEN          CLOUDY    26  22  84 S5        30.08F WCI  20
BUENA VISTA    CLOUDY    28  26  91 SE6       30.09S WCI  21
COPPER MTN     FAIR      23  18  80 MISG      30.08S
BERTHOUD PASS  NOT AVBL
COTTONWOOD PAS CLOUDY   N/A N/A N/A CALM      30.08S
GUNNISON       LGT SNOW  24  23  96 NE5       30.10S FOG     WCI  18
KREMMLING      FOG       14  10  85 CALM      30.14S VSB 1/2
LEADVILLE      CLOUDY    22  20  92 CALM      30.07S FOG
MONARCH PASS   CLOUDY    18  14  86 MISG      30.19S
SALIDA         CLOUDY    29  28  96 SE3       30.17S
SUNLIGHT       FAIR      19  18  93 CALM      30.12S FOG
WILKERSON PASS HVY SNOW N/A N/A N/A W6        30.09S VSB<1/4
$$

COZ069>075-170900-
...SAN LUIS VALLEY/SANGRE DE CRISTO MOUNTAINS...

CITY           SKY/WX    TMP DP  RH WIND       PRES   REMARKS
ALAMOSA        LGT SNOW  27  26  96 SW7       30.09S FOG     WCI  19
LA VETA PASS   LGT SNOW  23  21  93 CALM      30.08F
SAGUACHE       LGT SNOW  30  28  93 E5        30.09S WCI  25
$$

COZ035-036-038>040-170900-
...NORTHERN COLORADO FRONT RANGE...

CITY           SKY/WX    TMP DP  RH WIND       PRES   REMARKS
DENVER INTL AP FAIR      22  16  78 S9        30.07F WCI  12
DMNS CITY PARK   N/A     26  22  84 SE7       30.07R WCI  19
AURORA         PTCLDY    24  20  85 S10       30.07F WCI  14
FRONT RANGE AP FAIR      23  19  86 S6        30.08S WCI  16
ERIE MUNI ARPT FAIR      21  20  96 CALM      30.08R
BOULDER MUN AP FAIR      28  27  93 NW5       30.07R WCI  23
CENTENNIAL     FAIR      25  20  81 S9        30.06F WCI  15
BROOMFIELD     FAIR      28  27  93 CALM      30.06S
FORT COLLINS   FAIR      25  19  80 NE5       30.09F WCI  19
LONGMONT       FAIR      25  24  93 N3        30.10S
$$

COZ041-046-047-076>085-087-088-170900-
...PIKES PEAK/PALMER DIVIDE AND SOUTHERN FOOTHILLS...

CITY           SKY/WX    TMP DP  RH WIND       PRES   REMARKS
COLO. SPRINGS  FOG       29  28  96 S7        30.10F VSB 1   WCI  22
A. F. ACADEMY  CLOUDY    21  19  93 N6        30.08F WCI  14
SCHRIEVER AFB  NOT AVBL
ELLICOTT       FRZ RAIN N/A N/A N/A W10       30.09S
FALCON         MOCLDY    25  23  93 W7        30.09S WCI  17
FORT CARSON    MOCLDY    30  28  93 SW6       30.11F FOG     WCI  24
LIMON          CLOUDY    28  22  78 NW8       30.09S WCI  20
MONUMENT HILL  FAIR      19  18  93 S8        30.08F WCI   9
TRINIDAD       LGT SNOW  29  27  92 CALM      30.13F FOG
$$

COZ042>045-048>051-090-091-170900-
...NORTHEAST COLORADO...

CITY           SKY/WX    TMP DP  RH WIND       PRES   REMARKS
GREELEY ARPT   FAIR      21  18  88 W3        30.11S
AKRON          FAIR      19  13  77 W9        30.08S WCI   8
BURLINGTON     FAIR      24  20  84 W7        30.10R WCI  16
WRAY           FAIR      23  19  86 W5        30.10S WCI  17
STERLING       FAIR      18  14  86 S9        30.08S WCI   6
HOLYOKE        FAIR      23  16  74 W9        30.08S WCI  13
FORT MORGAN    FAIR      25  14  63 N9        30.10S WCI  15
$$

COZ086-089-092>099-170900-
...SOUTHEAST COLORADO...

CITY           SKY/WX    TMP DP  RH WIND       PRES   REMARKS
PUEBLO         CLOUDY    33  32  96 S5        30.13F WCI  29
LA JUNTA       LGT SNOW  33  31  92 SW9       30.15S FOG     WCI  25
LAMAR          LGT SNOW  33  31  92 W9        30.13F FOG     WCI  25
SPRINGFIELD      N/A     31  31 100 NW12      30.11F WCI  22
$$




USA.gov is the U.S. government's official web portal to all federal, state and local government web resources and services.